Tracking 35334 objects as of 13-Sep-2026
HD Live streaming from Space Station
objects crossing your sky now

STARLINK-35210

Track STARLINK-35210 now!
10-day predictions
STARLINK-35210 is classified as:


NORAD ID: 65903
Int'l Code: 2025-224X
Launch date: October 7, 2025
Source: United States (US)
Launch site: AIR FORCE EASTERN TEST RANGE (AFETR)
Your satellite tracking list
Your tracking list is empty




NASA's NSSDC Master Catalog

Two Line Element Set (TLE):
1 65903U 25224X   26256.27791102  .00013201  00000-0  40116-3 0  9990
2 65903  53.1580 219.3936 0001233  95.7527 264.3616 15.34398834 53581
Source of the keplerian elements: AFSPC